| time (UTC) | temp F | wind direction | speed MPH | gust MPH | rain 1hr in | rain 24hr in | rain mn in | humidity % | barometer mb |
| 20260901224006 | 62 | 295 | 10.0 | 23.0 | 0.00 | 0.00 | 0.00 | 79 | 1020.0 |
| 20260901223505 | 62 | 252 | 13.0 | 23.0 | 0.00 | 0.00 | 0.00 | 79 | 1020.2 |
| 20260901223006 | 61 | 275 | 10.0 | 24.0 | 0.00 | 0.00 | 0.00 | 78 | 1020.2 |
| 20260901222506 | 61 | 275 | 10.0 | 24.0 | 0.00 | 0.00 | 0.00 | 77 | 1020.1 |
| 20260901222005 | 61 | 251 | 12.0 | 22.0 | 0.00 | 0.00 | 0.00 | 76 | 1020.0 |
| 20260901221006 | 61 | 284 | 13.0 | 25.0 | 0.00 | 0.00 | 0.00 | 76 | 1020.1 |
| 20260901215005 | 60 | 261 | 10.0 | 21.0 | 0.00 | 0.00 | 0.00 | 78 | 1020.2 |
| 20260901214005 | 60 | 268 | 10.0 | 22.0 | 0.00 | 0.00 | 0.00 | 78 | 1020.2 |
| 20260901212005 | 59 | 271 | 12.0 | 20.0 | 0.00 | 0.00 | 0.00 | 77 | 1020.2 |
| 20260901211004 | 59 | 256 | 13.0 | 26.0 | 0.00 | 0.00 | 0.00 | 78 | 1020.3 |
| 20260901210507 | 58 | 254 | 14.0 | 26.0 | 0.00 | 0.00 | 0.00 | 78 | 1020.2 |
| 20260901210005 | 58 | 243 | 14.0 | 21.0 | 0.00 | 0.00 | 0.00 | 80 | 1020.2 |
| 20260901205505 | 58 | 260 | 10.0 | 18.0 | 0.00 | 0.00 | 0.00 | 81 | 1019.9 |
| 20260901204506 | 57 | 264 | 10.0 | 23.0 | 0.00 | 0.00 | 0.00 | 83 | 1019.9 |
| 20260901203506 | 57 | 253 | 13.0 | 22.0 | 0.00 | 0.00 | 0.00 | 83 | 1019.8 |
| 20260901203005 | 56 | 258 | 13.0 | 22.0 | 0.00 | 0.00 | 0.00 | 83 | 1019.7 |
| 20260901201506 | 55 | 256 | 12.0 | 24.0 | 0.00 | 0.00 | 0.00 | 86 | 1019.9 |
| 20260901200504 | 55 | 252 | 16.0 | 25.0 | 0.00 | 0.00 | 0.00 | 87 | 1019.7 |
| 20260901195506 | 54 | 256 | 14.0 | 23.0 | 0.00 | 0.00 | 0.00 | 87 | 1019.7 |
| 20260901194504 | 54 | 259 | 11.0 | 22.0 | 0.00 | 0.00 | 0.00 | 87 | 1019.5 |
| 20260901194006 | 54 | 251 | 16.0 | 25.0 | 0.00 | 0.00 | 0.00 | 86 | 1019.6 |
| 20260901193504 | 54 | 279 | 11.0 | 23.0 | 0.00 | 0.00 | 0.00 | 87 | 1019.5 |
| 20260901193005 | 54 | 249 | 13.0 | 24.0 | 0.00 | 0.00 | 0.00 | 87 | 1019.4 |
| 20260901192506 | 54 | 250 | 16.0 | 29.0 | 0.00 | 0.00 | 0.00 | 87 | 1019.4 |
| 20260901190505 | 54 | 260 | 16.0 | 24.0 | 0.00 | 0.00 | 0.00 | 86 | 1019.2 |
| 20260901190005 | 53 | 252 | 13.0 | 23.0 | 0.00 | 0.00 | 0.00 | 85 | 1019.2 |
| 20260901185504 | 53 | 253 | 12.0 | 22.0 | 0.00 | 0.00 | 0.00 | 84 | 1019.4 |
| 20260901185006 | 53 | 258 | 12.0 | 30.0 | 0.00 | 0.00 | 0.00 | 83 | 1019.2 |
| 20260901184504 | 53 | 258 | 13.0 | 24.0 | 0.00 | 0.00 | 0.00 | 82 | 1019.2 |
| 20260901183005 | 53 | 256 | 11.0 | 25.0 | 0.00 | 0.01 | 0.00 | 82 | 1019.0 |
| 20260901182504 | 53 | 249 | 17.0 | 25.0 | 0.00 | 0.03 | 0.00 | 83 | 1019.1 |
| 20260901181506 | 53 | 256 | 13.0 | 23.0 | 0.00 | 0.03 | 0.00 | 84 | 1018.9 |
| 20260901181005 | 53 | 254 | 12.0 | 18.0 | 0.00 | 0.03 | 0.00 | 83 | 1018.9 |
| 20260901180504 | 53 | 264 | 10.0 | 23.0 | 0.00 | 0.03 | 0.00 | 82 | 1019.0 |
| 20260901175005 | 53 | 256 | 11.0 | 21.0 | 0.00 | 0.03 | 0.00 | 81 | 1018.9 |
| 20260901173504 | 54 | 250 | 15.0 | 22.0 | 0.00 | 0.03 | 0.00 | 82 | 1018.8 |
| 20260901173005 | 53 | 254 | 14.0 | 22.0 | 0.00 | 0.03 | 0.00 | 83 | 1018.8 |
| 20260901172006 | 53 | 249 | 14.0 | 21.0 | 0.00 | 0.03 | 0.00 | 84 | 1018.6 |
| 20260901171504 | 53 | 250 | 12.0 | 18.0 | 0.00 | 0.03 | 0.00 | 84 | 1018.6 |
| 20260901171004 | 53 | 263 | 10.0 | 18.0 | 0.00 | 0.03 | 0.00 | 83 | 1018.7 |
| 20260901170004 | 53 | 253 | 12.0 | 20.0 | 0.00 | 0.03 | 0.00 | 83 | 1018.6 |
| 20260901165508 | 53 | 260 | 13.0 | 20.0 | 0.00 | 0.04 | 0.00 | 82 | 1018.7 |
| 20260901164506 | 53 | 247 | 13.0 | 20.0 | 0.00 | 0.05 | 0.00 | 81 | 1018.6 |
| 20260901164008 | 54 | 251 | 12.0 | 21.0 | 0.00 | 0.05 | 0.00 | 80 | 1018.7 |
| 20260901163506 | 54 | 247 | 11.0 | 23.0 | 0.00 | 0.05 | 0.00 | 79 | 1018.7 |
| 20260901163008 | 54 | 232 | 17.0 | 23.0 | 0.00 | 0.05 | 0.00 | 79 | 1018.6 |
| 20260901161008 | 53 | 249 | 16.0 | 24.0 | 0.00 | 0.05 | 0.00 | 79 | 1018.4 |
| 20260901160506 | 53 | 247 | 16.0 | 22.0 | 0.00 | 0.05 | 0.00 | 79 | 1018.6 |
| 20260901160006 | 53 | 250 | 13.0 | 24.0 | 0.00 | 0.05 | 0.00 | 78 | 1018.4 |
| 20260901155508 | 53 | 249 | 18.0 | 25.0 | 0.00 | 0.05 | 0.00 | 79 | 1018.6 |
| 20260901153508 | 53 | 258 | 12.0 | 22.0 | 0.00 | 0.05 | 0.00 | 80 | 1018.2 |
| 20260901151507 | 52 | 248 | 14.0 | 20.0 | 0.00 | 0.05 | 0.00 | 86 | 1018.4 |
| 20260901151006 | 52 | 252 | 9.0 | 14.0 | 0.00 | 0.05 | 0.00 | 86 | 1018.7 |
| 20260901150007 | 52 | 248 | 9.0 | 14.0 | 0.00 | 0.05 | 0.00 | 86 | 1018.9 |
| 20260901144506 | 53 | 244 | 11.0 | 20.0 | 0.00 | 0.05 | 0.00 | 86 | 1019.1 |
| 20260901144008 | 53 | 228 | 15.0 | 24.0 | 0.00 | 0.05 | 0.00 | 85 | 1019.1 |
| 20260901143508 | 53 | 220 | 14.0 | 24.0 | 0.00 | 0.06 | 0.00 | 81 | 1019.1 |
| 20260901142508 | 53 | 244 | 15.0 | 23.0 | 0.00 | 0.06 | 0.00 | 80 | 1019.1 |
| 20260901141506 | 53 | 251 | 12.0 | 25.0 | 0.00 | 0.06 | 0.00 | 81 | 1019.1 |
| 20260901141008 | 53 | 253 | 14.0 | 23.0 | 0.00 | 0.06 | 0.00 | 81 | 1019.1 |
| 20260901140506 | 53 | 239 | 14.0 | 23.0 | 0.00 | 0.06 | 0.00 | 81 | 1019.2 |
| 20260901140006 | 53 | 259 | 11.0 | 22.0 | 0.00 | 0.06 | 0.00 | 80 | 1019.3 |
| 20260901135008 | 53 | 240 | 16.0 | 24.0 | 0.00 | 0.06 | 0.00 | 80 | 1019.4 |
| 20260901134506 | 53 | 245 | 16.0 | 23.0 | 0.00 | 0.06 | 0.00 | 79 | 1019.6 |
| 20260901134006 | 53 | 242 | 17.0 | 29.0 | 0.00 | 0.06 | 0.00 | 78 | 1019.5 |
| 20260901132006 | 54 | 253 | 16.0 | 31.0 | 0.00 | 0.06 | 0.00 | 77 | 1019.4 |
| 20260901131507 | 54 | 245 | 22.0 | 31.0 | 0.00 | 0.06 | 0.00 | 78 | 1019.3 |
| 20260901131006 | 54 | 245 | 14.0 | 22.0 | 0.00 | 0.06 | 0.00 | 77 | 1019.5 |
| 20260901130006 | 53 | 246 | 17.0 | 25.0 | 0.00 | 0.06 | 0.00 | 78 | 1019.3 |
| 20260901125507 | 53 | 248 | 15.0 | 29.0 | 0.00 | 0.06 | 0.00 | 79 | 1019.2 |
| 20260901124008 | 53 | 251 | 15.0 | 21.0 | 0.00 | 0.06 | 0.00 | 79 | 1019.1 |
| 20260901121007 | 53 | 246 | 12.0 | 21.0 | 0.00 | 0.08 | 0.00 | 75 | 1019.0 |
| 20260901115506 | 53 | 251 | 15.0 | 29.0 | 0.00 | 0.08 | 0.08 | 74 | 1019.0 |
| 20260901114008 | 53 | 244 | 19.0 | 29.0 | 0.00 | 0.11 | 0.08 | 76 | 1019.2 |
| 20260901113506 | 54 | 255 | 12.0 | 23.0 | 0.00 | 0.11 | 0.08 | 78 | 1019.2 |
| 20260901112008 | 54 | 251 | 15.0 | 29.0 | 0.00 | 0.11 | 0.08 | 77 | 1018.7 |
| 20260901111506 | 54 | 254 | 13.0 | 25.0 | 0.00 | 0.11 | 0.08 | 77 | 1019.1 |
| 20260901110508 | 54 | 258 | 14.0 | 24.0 | 0.00 | 0.11 | 0.08 | 78 | 1019.0 |
| 20260901110005 | 54 | 249 | 15.0 | 21.0 | 0.00 | 0.11 | 0.08 | 78 | 1018.9 |
| 20260901105008 | 54 | 241 | 14.0 | 20.0 | 0.00 | 0.11 | 0.08 | 77 | 1019.4 |
| 20260901104506 | 54 | 246 | 13.0 | 20.0 | 0.00 | 0.11 | 0.08 | 75 | 1019.3 |
| 20260901103006 | 54 | 250 | 13.0 | 21.0 | 0.00 | 0.11 | 0.08 | 73 | 1019.3 |
| 20260901102506 | 54 | 251 | 12.0 | 18.0 | 0.00 | 0.11 | 0.08 | 73 | 1019.2 |
| 20260901102007 | 54 | 242 | 16.0 | 21.0 | 0.00 | 0.11 | 0.08 | 72 | 1019.2 |
| 20260901100008 | 54 | 251 | 10.0 | 21.0 | 0.00 | 0.11 | 0.08 | 71 | 1019.2 |
| 20260901091507 | 54 | 241 | 12.0 | 24.0 | 0.00 | 0.11 | 0.08 | 75 | 1019.0 |
| 20260901090007 | 55 | 247 | 13.0 | 23.0 | 0.00 | 0.11 | 0.08 | 79 | 1018.7 |
| 20260901084507 | 55 | 253 | 15.0 | 24.0 | 0.00 | 0.11 | 0.08 | 76 | 1018.5 |
| 20260901084006 | 55 | 246 | 17.0 | 26.0 | 0.00 | 0.11 | 0.08 | 76 | 1018.6 |
| 20260901083506 | 55 | 238 | 17.0 | 26.0 | 0.00 | 0.11 | 0.08 | 75 | 1018.6 |
| 20260901082006 | 54 | 244 | 18.0 | 25.0 | 0.00 | 0.11 | 0.08 | 73 | 1018.2 |
| 20260901081507 | 54 | 253 | 15.0 | 26.0 | 0.00 | 0.11 | 0.08 | 73 | 1018.2 |
| 20260901080506 | 54 | 249 | 15.0 | 25.0 | 0.00 | 0.11 | 0.08 | 74 | 1018.1 |
| 20260901074505 | 54 | 242 | 16.0 | 26.0 | 0.00 | 0.11 | 0.08 | 73 | 1018.1 |
| 20260901074007 | 54 | 248 | 19.0 | 32.0 | 0.00 | 0.11 | 0.08 | 75 | 1018.2 |
| 20260901073505 | 55 | 245 | 18.0 | 28.0 | 0.00 | 0.11 | 0.08 | 77 | 1018.0 |
| 20260901072507 | 55 | 237 | 13.0 | 25.0 | 0.00 | 0.12 | 0.08 | 77 | 1017.9 |
| 20260901071506 | 55 | 242 | 16.0 | 29.0 | 0.00 | 0.12 | 0.08 | 75 | 1017.9 |
| 20260901071007 | 55 | 238 | 18.0 | 29.0 | 0.00 | 0.12 | 0.08 | 74 | 1017.7 |
| 20260901070508 | 55 | 243 | 17.0 | 30.0 | 0.00 | 0.12 | 0.08 | 73 | 1017.7 |
| 20260901070005 | 54 | 242 | 25.0 | 33.0 | 0.00 | 0.12 | 0.08 | 73 | 1017.7 |
| 20260901065007 | 54 | 247 | 15.0 | 25.0 | 0.00 | 0.12 | 0.08 | 72 | 1017.5 |
| 20260901064505 | 54 | 250 | 15.0 | 24.0 | 0.00 | 0.12 | 0.08 | 71 | 1017.4 |
| 20260901064005 | 54 | 249 | 14.0 | 31.0 | 0.00 | 0.12 | 0.08 | 69 | 1017.4 |
| 20260901063507 | 54 | 244 | 19.0 | 30.0 | 0.00 | 0.12 | 0.08 | 73 | 1017.5 |
| 20260901062505 | 54 | 249 | 13.0 | 22.0 | 0.00 | 0.12 | 0.08 | 72 | 1017.6 |
| 20260901062007 | 54 | 235 | 13.0 | 26.0 | 0.00 | 0.12 | 0.08 | 71 | 1017.5 |
| 20260901061505 | 54 | 237 | 20.0 | 31.0 | 0.00 | 0.12 | 0.08 | 70 | 1017.4 |
| 20260901061006 | 54 | 250 | 14.0 | 26.0 | 0.00 | 0.12 | 0.08 | 73 | 1017.4 |
| 20260901060505 | 54 | 245 | 14.0 | 21.0 | 0.00 | 0.12 | 0.08 | 74 | 1017.5 |
| 20260901060008 | 54 | 237 | 17.0 | 28.0 | 0.00 | 0.12 | 0.08 | 74 | 1017.3 |
| 20260901055507 | 55 | 240 | 17.0 | 35.0 | 0.00 | 0.12 | 0.08 | 75 | 1017.2 |
| 20260901054007 | 55 | 244 | 18.0 | 28.0 | 0.00 | 0.12 | 0.08 | 70 | 1016.8 |
| 20260901053506 | 55 | 243 | 22.0 | 37.0 | 0.00 | 0.12 | 0.08 | 70 | 1017.0 |
| 20260901052505 | 55 | 245 | 16.0 | 26.0 | 0.00 | 0.12 | 0.08 | 71 | 1017.0 |
| 20260901051006 | 55 | 244 | 16.0 | 28.0 | 0.00 | 0.12 | 0.08 | 73 | 1016.9 |
| 20260901045007 | 55 | 244 | 16.0 | 28.0 | 0.00 | 0.12 | 0.08 | 74 | 1016.7 |
| 20260901044506 | 55 | 232 | 17.0 | 29.0 | 0.00 | 0.12 | 0.08 | 73 | 1016.5 |
| 20260901044005 | 55 | 233 | 20.0 | 28.0 | 0.00 | 0.12 | 0.08 | 73 | 1016.5 |
| 20260901041507 | 56 | 239 | 18.0 | 28.0 | 0.00 | 0.12 | 0.08 | 72 | 1016.5 |
| 20260901041006 | 56 | 237 | 18.0 | 29.0 | 0.00 | 0.12 | 0.08 | 72 | 1016.5 |
| 20260901040505 | 56 | 250 | 17.0 | 31.0 | 0.00 | 0.12 | 0.08 | 72 | 1016.4 |
| 20260901040007 | 56 | 226 | 18.0 | 31.0 | 0.00 | 0.12 | 0.08 | 71 | 1016.5 |
| 20260901035506 | 56 | 232 | 18.0 | 31.0 | 0.00 | 0.12 | 0.08 | 73 | 1016.5 |
| 20260901034507 | 57 | 247 | 18.0 | 32.0 | 0.00 | 0.12 | 0.08 | 72 | 1016.3 |
| 20260901033505 | 58 | 246 | 19.0 | 29.0 | 0.00 | 0.12 | 0.08 | 69 | 1016.1 |
| 20260901031506 | 58 | 238 | 21.0 | 31.0 | 0.00 | 0.12 | 0.08 | 70 | 1015.9 |
| 20260901030005 | 57 | 249 | 17.0 | 29.0 | 0.00 | 0.12 | 0.08 | 68 | 1015.7 |
| 20260901025507 | 58 | 248 | 18.0 | 35.0 | 0.00 | 0.12 | 0.08 | 68 | 1015.9 |
| 20260901024505 | 58 | 230 | 16.0 | 31.0 | 0.00 | 0.12 | 0.08 | 69 | 1015.6 |
| 20260901024007 | 58 | 231 | 24.0 | 32.0 | 0.00 | 0.12 | 0.08 | 66 | 1016.0 |
| 20260901021505 | 57 | 249 | 22.0 | 32.0 | 0.00 | 0.12 | 0.08 | 74 | 1015.7 |
| 20260901020505 | 57 | 231 | 19.0 | 29.0 | 0.00 | 0.12 | 0.08 | 72 | 1015.9 |
| 20260901015505 | 57 | 252 | 15.0 | 30.0 | 0.00 | 0.12 | 0.08 | 70 | 1015.9 |
| 20260901010006 | 56 | 248 | 17.0 | 25.0 | 0.00 | 0.15 | 0.08 | 78 | 1016.4 |
| 20260901004505 | 58 | 235 | 18.0 | 33.0 | 0.00 | 0.15 | 0.08 | 69 | 1016.1 |
| 20260901004006 | 59 | 248 | 20.0 | 32.0 | 0.00 | 0.15 | 0.08 | 68 | 1016.1 |
| 20260901003506 | 59 | 249 | 19.0 | 33.0 | 0.00 | 0.15 | 0.08 | 68 | 1016.0 |
| 20260901001505 | 59 | 240 | 21.0 | 31.0 | 0.00 | 0.16 | 0.08 | 67 | 1016.3 |
| 20260901001004 | 59 | 249 | 21.0 | 31.0 | 0.00 | 0.16 | 0.08 | 68 | 1016.4 |
| 20260901000505 | 59 | 244 | 18.0 | 29.0 | 0.00 | 0.16 | 0.08 | 72 | 1016.3 |
| 20260831233005 | 60 | 248 | 19.0 | 36.0 | 0.00 | 0.16 | 0.08 | 68 | 1016.0 |
| 20260831232505 | 59 | 246 | 19.0 | 36.0 | 0.00 | 0.16 | 0.08 | 69 | 1016.0 |
| 20260831231505 | 59 | 238 | 27.0 | 38.0 | 0.00 | 0.16 | 0.08 | 66 | 1016.2 |